Find Starlink 31722

NORAD ID: 59549 Int'l Des: 2024-074 Owner: SPXS Country: US Constellation: starlink operational
LEOCIRCULAR

Current View

Loading 3D Globe...

About Starlink 31722

Starlink 31722 (NORAD 59549) is a starlink constellation satellite (v2 mini) launched Apr 18, 2024 by SPXS of US. It operates in LEO, CIRCULAR orbit with a mass of 730.00 kg.

Upcoming Passes

Passes for default location (London). Set your location on the main map for personalized predictions.

Altitude History

Loading altitude history...

Two-Line Element Set

1 59549U 24074R 26262.52469132 .00001453 00000-0 62308-4 0 9995
2 59549 43.0021 328.4349 0001174 246.6213 113.4515 15.27591374135669
Epoch: Sep 19, 2026 • Age: 30 hours

Current Status

Altitude 483.6 km
Apogee / Perigee N/A
Velocity 7.63 km/s
Sub-Earth Point -4.31°S, 41.45°E
Launch Date Apr 18, 2024
Age 2.4 years
Type internet

Technical Details

Classification Payload
Mass 730.00 kg
Dry Mass 700.00 kg
Length 0.30 m
Span 29.00 m
Shape ? Box + pan
Manufacturer SPXS
Bus Type Starlink V2M
Phase Status In Orbit
Owner/State SPXS/US

Most Searched